sat.trackr.live / text

‹ back to catalog

STARLINK-2102

NORAD 47382 · 2021-005AK

PAYLOAD ACTIVE UNKNOWN

§ Identity

Operator
Country
US
Launch date
2021-01-20
Launch site
AFETR
Launch vehicle
Mass (kg)
RCS (m²)

Purposes: comms

External: N2YO · Heavens-Above · Gunter

§ Orbital elements

Epoch: 2026-05-25T02:49:36.983424Z

Period
94.01 min
Inclination
53.1613°
Eccentricity
0.0001123
Mean motion
15.31704601 rev/d
Perigee alt
470.0 km
Apogee alt
471.5 km
Semi-major
6,848.9 km
B*
1.1341e-4
RAAN
31.0743°
Arg perigee
97.3028°
Mean anomaly
262.8101°
Rev number
29,524

§ Raw data

STARLINK-21021 47382U 21005AK  26145.11778916  .00003156  00000+0  11341-3 0  99972 47382  53.1613  31.0743 0001123  97.3028 262.8101 15.31704601295249

JSON: /api/v1/satellites/47382 · /tle

For live sub-satellite position, see the globe view (requires WebGL).

§ Visibility from observer

Set your observer location to see the next 7 days of passes ≥ 10°. The values pass through the URL so the page stays shareable.

No JS? Fill the form by hand. The geolocation button needs JavaScript.